User: anonymous   Login
Location: Unspecified
(0.0000°N, 0.0000°E)
Time: 14:50:27
(UTC+00:00)
Language:

KAITUO 1B - Orbit

View from above orbital plane
View from above orbital plane
View from above satellite
View from above satellite

Ground track
Ground track

The orbit data is extracted from the following two-line orbital elements,

1 40912U 15049P   17206.25696938 +.00001227 +00000-0 +63997-4 0  9999
2 40912 097.4518 213.4327 0017448 071.6333 349.1003 15.17706977102060
Epoch (UTC): 25 July 2017 06:10:02
Eccentricity: 0.0017448
inclination: 97.4518°
perigee height: 501 km
apogee height: 525 km
right ascension of ascending node: 213.4327°
argument of perigee: 71.6333°
revolutions per day: 15.17706977
mean anomaly at epoch: 349.1003°
orbit number at epoch: 10206

The dashed part of the orbit path shows where the satellite is in the earth's shadow,  

DLR